CZ-2C R/B, 46811

Orbit data source: Space-Track

CZ-2C R/B, 46811 is space debris in LEO originally from a launch on Mon, 26 Oct 2020 UTC launched from the Xichang Space Center, China (XSC). Debris objects in space refer to the collection of defunct objects orbiting the Earth. Examples of debris include non-operational satellites, rocket bodies, and fragments generated from explosions, collisions, or faulty payload assembly.

Not visible in the next 10 days
CZ-2C R/B details
Identifier
46811, 2020-076E
Orbit
LEO
Last TLE update9 hours ago
Origin
Flag of CNCASC (CN / PRC)
ManufacturerCALT
MissionSpacecraft
Bus & MotorCZ-2 STAGE 2, Unknown motor
Mass~3,800 kg wet, ~3,800 kg dry
Launch date (UTC)
2020-10-26 (4 years ago)
Launch vehicleUnknown
Launch site
Xichang Space Center, China (XSC)
Object type
Payload
Rocket body
Debris
Shape & HBRCyl, 7.49 m
Radar Cross Section23.715 m², Large (>1 m²)

Expand to show TLE details & history

TLE from 9 hours ago
0 CZ-2C R/B
1 46811U 20076E   24346.57269827  .00237414  00000-0  88864-3 0  9998
2 46811  35.3030  86.5831 0022595 311.8183  48.0627 15.85878989230623
Epoch: 2024-12-11T13:44Z
Definitive object data (Epoch: 2024-12-11T13:44:41.13Z)
Latitude-0.00004°
Longitude159.64622°
Altitude302.677 km
Speed7.734 km/s
True Right ascension05h 46m 19s
True Declination0° 00' 00"
Sunlit
Object was in full shadow at TLE epoch
Visualization TLE readout
Latitude-35.43662°
Longitude64.97455°
Altitude312.404 km
Speed7.727 km/s
Apparent Right ascension03h 34m 26s
Apparent Declination-65° 56' 02"
Sunlit
Object is in daylight
Visualization observer readout
Local Sidereal Time20:49:30
Azimuth148.368° SSE
Elevation-40.302°
Doppler factor1
Orbital elements
Apogee altitude332.269 km
Perigee altitude302.013 km
Semi-major axis6,695.278 km
Eccentricity0.0022595
Inclination35.303°
RAAN86.5831°
Arg. of periapsis311.8183°
True anomaly48.25567°
Mean anomaly48.0627°
Eccentric anomaly48.15915°
Mean motion3.96178 °/min
BSTAR0.00088864
Orbital period90.87 mins
Loading maneuver chart data...
Loading historical data...
Loading historical data...
Loading historical data...
Loading historical data...
Loading historical data...
Loading historical data...
Loading historical data...
Other satellites on launch #76 in the year 2020 (2020-10-26 UTC)

CZ-2C R/B Visibility forecast

Observer location: undefined°, undefined

CZ-2C R/B is not visible in the next 10 days
Span
Click to sort rows by Start time (UTC) header in descending order
Start Az.
Max El. time (UTC)
Max El. Az.
Max El.
End time (UTC)
End Az.
|